Location: Altenst�hlen
(53.5567°N, 8.9425°E)
Time: 07:12:00
(UTC+00:00)

BREEZE-M DEB (TANK) - Pass Details

Date: 23 October 2019
Orbit: 326 x 16606 km, 49.4° (Epoch: 12 November)

Event Time Altitude Azimuth Distance (km) Brightness Sun altitude
Rises 18:14:13 0° 237° (WSW) 6,777 8.7 -18.9°
Reaches altitude 10° 18:20:41 10° 232° (SW) 3,980 7.2 -19.9°
Maximum altitude 18:27:40 34° 170° (S) 1,144 3.7 -20.9°
Enters shadow 18:28:03 33° 157° (SSE) 1,098 3.5 -21.0°
